Flag for Greenland Weather past 2 weeks in Ittoqqortoormiit, Greenland

Now
34 °F

Sunny.


Feels Like: 34 °F
Forecast: 21 / 32 °F
Wind: 2 mph from South

Location: Scoresbysund

Current Time: May 29, 2015 at 1:04:55 PM

Latest Report: May 29, 2015 at 12:00 PM


Visibility: 31 mi

Pressure: 30.00 "Hg

Humidity: 60%

Dew point: 21 °F

Location of IttoqqortoormiitLocation

Historic Weather in Ittoqqortoormiit — Graph

°F

Ittoqqortoormiit temperature yesterday

Maximum temperature yesterday: 35 °F (at 7:00 PM)
Minimum temperature yesterday: 29 °F (at 3:00 AM)
Average temperature yesterday: 32 °F

Past Weeks' High & Low Weather Summary

 TemperatureHumidityPressure
High41 °F (May 18, 1:00 PM)100% (May 19, 10:00 PM)30.06 "Hg (May 19, 10:00 PM)
Low18 °F (May 15, 4:00 AM)43% (May 24, 10:00 PM)29.55 "Hg (May 23, 11:00 PM)
Average30 °F83%29.84 "Hg
* Reported May 14 11:00 AM — May 29 11:00 AM, Ittoqqortoormiit, Weather by CustomWeather, © 2015

Note: Actual official high and low records may vary slightly from our data, if they occured in-between our weather recording intervals... More about our weather records

Advertising

Ittoqqortoormiit weather history for previous 24 hours

 ConditionsComfort  
Time TempWeatherWind HumidityBarometerVisibility
11:00 AM
Fri, May 29
35 °FSunny.1 mph59%30.00 "Hg31 mi
10:00 AM32 °FSunny.1 mph67%30.00 "Hg31 mi
9:00 AM35 °FSunny.1 mph61%30.00 "Hg31 mi
8:00 AM31 °FSunny.1 mph69%30.00 "Hg31 mi
7:00 AM28 °FSunny.2 mph78%30.00 "Hg31 mi
6:00 AM22 °FFog.2 mph85%30.01 "Hg3 mi
5:00 AM29 °FSunny.1 mph72%29.99 "Hg31 mi
4:00 AM27 °FSunny.1 mph76%30.00 "Hg31 mi
3:00 AM27 °FSunny.2 mph81%30.01 "HgN/A
2:00 AM29 °FChilly.13 mph69%30.01 "Hg31 mi
1:00 AM29 °FSunny.9 mph74%30.01 "Hg31 mi
12:00 AM30 °FPassing clouds.3 mph75%30.01 "Hg31 mi
8:00 PM
Thu, May 28
33 °FOvercast.2 mph82%30.01 "Hg31 mi
7:00 PM35 °FOvercast.2 mph81%30.00 "Hg31 mi
6:00 PM32 °FLight snow. Low clouds.3 mph93%30.00 "Hg6 mi
5:00 PM32 °FLight snow. Low clouds.5 mph96%30.00 "Hg9 mi
4:00 PM31 °FLight snow. Low clouds.3 mph96%30.00 "Hg7 mi
3:00 PM33 °FLight snow. Overcast.8 mph79%29.98 "Hg16 mi
2:00 PM32 °FLight snow. Overcast.18 mph81%29.98 "Hg4 mi
1:00 PM31 °FLight snow. Overcast.7 mph91%29.99 "Hg5 mi
Weather by CustomWeather, © 2015

See weather overviewHow to use our weather pages